| time (UTC) | temp F | wind direction | speed MPH | gust MPH | rain 1hr in | rain 24hr in | rain mn in | humidity % | barometer mb |
| 20260903113018 | 58 | 178 | 2.0 | 5.0 | 0.00 | 0.20 | 0.00 | 77 | 1007.3 |
| 20260903112520 | 58 | 169 | 2.0 | 6.0 | 0.00 | 0.20 | 0.00 | 76 | 1007.3 |
| 20260903112017 | 58 | 176 | 2.0 | 4.0 | 0.00 | 0.20 | 0.00 | 76 | 1007.3 |
| 20260903111518 | 58 | 203 | 3.0 | 5.0 | 0.00 | 0.20 | 0.00 | 75 | 1007.4 |
| 20260903111018 | 58 | 195 | 2.0 | 5.0 | 0.00 | 0.20 | 0.00 | 75 | 1007.3 |
| 20260903110518 | 58 | 189 | 3.0 | 8.0 | 0.00 | 0.20 | 0.00 | 75 | 1007.3 |
| 20260903110018 | 58 | 200 | 1.0 | 4.0 | 0.00 | 0.20 | 0.00 | 76 | 1007.3 |
| 20260903105518 | 58 | 194 | 3.0 | 7.0 | 0.00 | 0.20 | 0.00 | 76 | 1007.3 |
| 20260903105018 | 58 | 193 | 3.0 | 5.0 | 0.00 | 0.20 | 0.00 | 77 | 1007.3 |
| 20260903104518 | 57 | 201 | 2.0 | 5.0 | 0.00 | 0.20 | 0.00 | 78 | 1007.3 |
| 20260903104018 | 57 | 199 | 1.0 | 4.0 | 0.00 | 0.20 | 0.00 | 79 | 1007.3 |
| 20260903103519 | 57 | 211 | 1.0 | 4.0 | 0.00 | 0.20 | 0.00 | 80 | 1007.3 |
| 20260903103019 | 57 | 192 | 2.0 | 5.0 | 0.00 | 0.20 | 0.00 | 79 | 1007.3 |
| 20260903102519 | 57 | 181 | 3.0 | 6.0 | 0.00 | 0.20 | 0.00 | 80 | 1007.3 |
| 20260903102039 | 57 | 173 | 3.0 | 5.0 | 0.00 | 0.20 | 0.00 | 80 | 1007.3 |
| 20260903101519 | 57 | 173 | 2.0 | 5.0 | 0.00 | 0.20 | 0.00 | 80 | 1007.3 |
| 20260903101036 | 57 | 183 | 2.0 | 4.0 | 0.00 | 0.20 | 0.00 | 80 | 1007.3 |
| 20260903100518 | 57 | 187 | 3.0 | 8.0 | 0.00 | 0.20 | 0.00 | 80 | 1007.3 |
| 20260903100015 | 57 | 152 | 3.0 | 7.0 | 0.00 | 0.20 | 0.00 | 80 | 1007.2 |
| 20260903095516 | 57 | 165 | 2.0 | 5.0 | 0.00 | 0.20 | 0.00 | 80 | 1007.3 |
| 20260903095016 | 57 | 165 | 3.0 | 6.0 | 0.00 | 0.20 | 0.00 | 80 | 1007.3 |
| 20260903094516 | 57 | 174 | 3.0 | 7.0 | 0.00 | 0.20 | 0.00 | 80 | 1007.2 |
| 20260903094022 | 57 | 170 | 3.0 | 6.0 | 0.00 | 0.20 | 0.00 | 79 | 1007.2 |
| 20260903093556 | 57 | 185 | 2.0 | 6.0 | 0.00 | 0.20 | 0.00 | 80 | 1007.2 |
| 20260903093016 | 57 | 179 | 2.0 | 4.0 | 0.00 | 0.20 | 0.00 | 81 | 1007.2 |
| 20260903092517 | 57 | 187 | 2.0 | 4.0 | 0.00 | 0.20 | 0.00 | 82 | 1007.2 |
| 20260903092016 | 57 | 192 | 1.0 | 3.0 | 0.00 | 0.20 | 0.00 | 82 | 1007.2 |
| 20260903091516 | 57 | 191 | 2.0 | 5.0 | 0.00 | 0.20 | 0.00 | 81 | 1007.2 |
| 20260903091016 | 57 | 200 | 1.0 | 3.0 | 0.00 | 0.20 | 0.00 | 82 | 1007.2 |
| 20260903090516 | 57 | 196 | 2.0 | 5.0 | 0.00 | 0.20 | 0.00 | 82 | 1007.1 |
| 20260903090137 | 57 | 188 | 1.0 | 4.0 | 0.00 | 0.20 | 0.00 | 82 | 1007.0 |
| 20260903085517 | 57 | 207 | 1.0 | 2.0 | 0.00 | 0.20 | 0.00 | 81 | 1007.0 |
| 20260903085016 | 57 | 187 | 2.0 | 4.0 | 0.00 | 0.20 | 0.00 | 81 | 1007.0 |
| 20260903084517 | 57 | 198 | 2.0 | 5.0 | 0.00 | 0.20 | 0.00 | 80 | 1006.9 |
| 20260903084017 | 57 | 195 | 2.0 | 5.0 | 0.00 | 0.20 | 0.00 | 79 | 1006.9 |
| 20260903083517 | 57 | 182 | 3.0 | 6.0 | 0.00 | 0.20 | 0.00 | 79 | 1006.9 |
| 20260903083016 | 57 | 198 | 2.0 | 5.0 | 0.00 | 0.20 | 0.00 | 79 | 1006.9 |
| 20260903082540 | 58 | 173 | 3.0 | 5.0 | 0.00 | 0.20 | 0.00 | 79 | 1006.9 |
| 20260903082017 | 58 | 179 | 3.0 | 8.0 | 0.00 | 0.20 | 0.00 | 79 | 1007.0 |
| 20260903081601 | 58 | 162 | 3.0 | 7.0 | 0.00 | 0.20 | 0.00 | 78 | 1007.0 |
| 20260903081020 | 58 | 187 | 3.0 | 8.0 | 0.00 | 0.20 | 0.00 | 78 | 1006.9 |
| 20260903080517 | 58 | 186 | 3.0 | 7.0 | 0.00 | 0.20 | 0.00 | 78 | 1006.9 |
| 20260903080038 | 58 | 159 | 4.0 | 9.0 | 0.00 | 0.20 | 0.00 | 79 | 1006.9 |
| 20260903075538 | 58 | 172 | 3.0 | 8.0 | 0.00 | 0.20 | 0.00 | 80 | 1006.9 |
| 20260903075018 | 58 | 193 | 3.0 | 6.0 | 0.00 | 0.20 | 0.00 | 80 | 1006.9 |
| 20260903074518 | 58 | 178 | 3.0 | 7.0 | 0.00 | 0.20 | 0.00 | 79 | 1006.9 |
| 20260903074018 | 58 | 207 | 3.0 | 6.0 | 0.00 | 0.20 | 0.00 | 78 | 1006.8 |
| 20260903073538 | 58 | 194 | 3.0 | 7.0 | 0.00 | 0.20 | 0.00 | 78 | 1006.8 |
| 20260903073021 | 58 | 203 | 3.0 | 5.0 | 0.00 | 0.20 | 0.00 | 77 | 1006.7 |
| 20260903072558 | 58 | 199 | 3.0 | 6.0 | 0.00 | 0.20 | 0.00 | 77 | 1006.7 |
| 20260903072019 | 58 | 191 | 3.0 | 8.0 | 0.00 | 0.20 | 0.00 | 78 | 1006.7 |
| 20260903071559 | 58 | 182 | 3.0 | 6.0 | 0.00 | 0.20 | 0.00 | 78 | 1006.7 |
| 20260903071019 | 58 | 197 | 3.0 | 7.0 | 0.00 | 0.20 | 0.00 | 78 | 1006.7 |
| 20260903070518 | 58 | 189 | 4.0 | 7.0 | 0.00 | 0.20 | 0.00 | 78 | 1006.7 |
| 20260903070019 | 58 | 186 | 3.0 | 6.0 | 0.00 | 0.20 | 0.00 | 79 | 1006.7 |
| 20260903065518 | 58 | 191 | 4.0 | 8.0 | 0.00 | 0.20 | 0.20 | 79 | 1006.7 |
| 20260903065021 | 58 | 192 | 4.0 | 8.0 | 0.00 | 0.20 | 0.20 | 81 | 1006.7 |
| 20260903064518 | 58 | 196 | 3.0 | 6.0 | 0.00 | 0.20 | 0.20 | 82 | 1006.7 |
| 20260903064016 | 58 | 191 | 3.0 | 6.0 | 0.00 | 0.20 | 0.20 | 83 | 1006.7 |
| 20260903063516 | 58 | 172 | 2.0 | 5.0 | 0.00 | 0.20 | 0.20 | 84 | 1006.6 |
| 20260903063016 | 58 | 168 | 2.0 | 6.0 | 0.00 | 0.20 | 0.20 | 84 | 1006.7 |
| 20260903062517 | 58 | 196 | 3.0 | 6.0 | 0.00 | 0.20 | 0.20 | 83 | 1006.7 |
| 20260903062036 | 58 | 192 | 3.0 | 6.0 | 0.00 | 0.20 | 0.20 | 83 | 1006.7 |
| 20260903061516 | 58 | 187 | 3.0 | 9.0 | 0.00 | 0.20 | 0.20 | 83 | 1006.6 |
| 20260903061016 | 58 | 195 | 3.0 | 9.0 | 0.00 | 0.20 | 0.20 | 83 | 1006.6 |
| 20260903060516 | 58 | 195 | 4.0 | 8.0 | 0.00 | 0.20 | 0.20 | 84 | 1006.6 |
| 20260903060016 | 58 | 191 | 3.0 | 8.0 | 0.00 | 0.20 | 0.20 | 84 | 1006.6 |
| 20260903055517 | 59 | 191 | 4.0 | 10.0 | 0.00 | 0.20 | 0.20 | 84 | 1006.6 |
| 20260903055036 | 59 | 187 | 3.0 | 7.0 | 0.00 | 0.20 | 0.20 | 84 | 1006.7 |
| 20260903054517 | 59 | 185 | 4.0 | 8.0 | 0.00 | 0.20 | 0.20 | 85 | 1006.6 |
| 20260903054016 | 59 | 188 | 4.0 | 7.0 | 0.00 | 0.20 | 0.20 | 85 | 1006.7 |
| 20260903053517 | 59 | 190 | 4.0 | 7.0 | 0.00 | 0.20 | 0.20 | 86 | 1006.7 |
| 20260903053017 | 59 | 185 | 4.0 | 8.0 | 0.00 | 0.20 | 0.20 | 86 | 1006.7 |
| 20260903052517 | 58 | 186 | 4.0 | 9.0 | 0.00 | 0.20 | 0.20 | 87 | 1006.6 |
| 20260903052017 | 59 | 180 | 3.0 | 6.0 | 0.00 | 0.20 | 0.20 | 86 | 1006.6 |
| 20260903051517 | 59 | 193 | 3.0 | 9.0 | 0.00 | 0.20 | 0.20 | 86 | 1006.6 |
| 20260903051020 | 59 | 186 | 3.0 | 7.0 | 0.00 | 0.20 | 0.20 | 86 | 1006.6 |
| 20260903050517 | 59 | 184 | 4.0 | 8.0 | 0.00 | 0.20 | 0.20 | 86 | 1006.6 |
| 20260903050017 | 59 | 190 | 4.0 | 7.0 | 0.00 | 0.20 | 0.20 | 85 | 1006.6 |
| 20260903045518 | 59 | 203 | 3.0 | 6.0 | 0.00 | 0.20 | 0.20 | 84 | 1006.6 |
| 20260903045021 | 59 | 201 | 2.0 | 6.0 | 0.00 | 0.20 | 0.20 | 84 | 1006.6 |
| 20260903044518 | 59 | 200 | 3.0 | 6.0 | 0.00 | 0.20 | 0.20 | 82 | 1006.6 |
| 20260903044017 | 59 | 196 | 3.0 | 6.0 | 0.00 | 0.20 | 0.20 | 82 | 1006.5 |
| 20260903043521 | 59 | 204 | 2.0 | 5.0 | 0.00 | 0.20 | 0.20 | 82 | 1006.5 |
| 20260903043018 | 59 | 191 | 3.0 | 8.0 | 0.00 | 0.20 | 0.20 | 83 | 1006.5 |
| 20260903042518 | 59 | 186 | 4.0 | 8.0 | 0.00 | 0.20 | 0.20 | 84 | 1006.5 |
| 20260903042018 | 59 | 194 | 3.0 | 8.0 | 0.00 | 0.20 | 0.20 | 85 | 1006.4 |
| 20260903041518 | 59 | 198 | 3.0 | 6.0 | 0.00 | 0.20 | 0.20 | 85 | 1006.4 |
| 20260903041038 | 59 | 189 | 3.0 | 6.0 | 0.00 | 0.20 | 0.20 | 86 | 1006.4 |
| 20260903040541 | 59 | 205 | 2.0 | 5.0 | 0.00 | 0.20 | 0.20 | 87 | 1006.4 |
| 20260903040017 | 59 | 185 | 3.0 | 7.0 | 0.00 | 0.20 | 0.20 | 86 | 1006.3 |
| 20260903035518 | 59 | 186 | 4.0 | 9.0 | 0.00 | 0.20 | 0.20 | 86 | 1006.3 |
| 20260903035018 | 59 | 185 | 3.0 | 6.0 | 0.00 | 0.20 | 0.20 | 85 | 1006.3 |
| 20260903034539 | 59 | 185 | 3.0 | 7.0 | 0.00 | 0.20 | 0.20 | 85 | 1006.2 |
| 20260903034018 | 59 | 215 | 3.0 | 5.0 | 0.00 | 0.20 | 0.20 | 84 | 1006.2 |
| 20260903033519 | 59 | 196 | 2.0 | 7.0 | 0.00 | 0.20 | 0.20 | 83 | 1006.0 |
| 20260903033036 | 59 | 204 | 2.0 | 5.0 | 0.00 | 0.20 | 0.20 | 81 | 1006.0 |
| 20260903032519 | 59 | 202 | 2.0 | 7.0 | 0.00 | 0.20 | 0.20 | 80 | 1005.9 |
| 20260903032019 | 59 | 190 | 4.0 | 7.0 | 0.00 | 0.20 | 0.20 | 79 | 1005.8 |
| 20260903031536 | 59 | 210 | 3.0 | 8.0 | 0.00 | 0.20 | 0.20 | 79 | 1005.8 |
| 20260903031016 | 58 | 202 | 2.0 | 6.0 | 0.00 | 0.20 | 0.20 | 80 | 1005.7 |
| 20260903030516 | 58 | 201 | 3.0 | 5.0 | 0.00 | 0.20 | 0.20 | 80 | 1005.6 |
| 20260903030016 | 59 | 192 | 3.0 | 6.0 | 0.00 | 0.20 | 0.20 | 80 | 1005.6 |
| 20260903025516 | 59 | 198 | 3.0 | 9.0 | 0.00 | 0.20 | 0.20 | 80 | 1005.5 |
| 20260903025017 | 59 | 194 | 3.0 | 6.0 | 0.00 | 0.20 | 0.20 | 80 | 1005.4 |
| 20260903024516 | 59 | 186 | 3.0 | 7.0 | 0.00 | 0.20 | 0.20 | 80 | 1005.4 |
| 20260903024037 | 59 | 198 | 3.0 | 8.0 | 0.00 | 0.20 | 0.20 | 80 | 1005.3 |
| 20260903023516 | 59 | 187 | 4.0 | 9.0 | 0.00 | 0.20 | 0.20 | 81 | 1005.2 |
| 20260903023037 | 59 | 180 | 3.0 | 6.0 | 0.00 | 0.20 | 0.20 | 81 | 1005.1 |
| 20260903022517 | 59 | 191 | 3.0 | 5.0 | 0.00 | 0.20 | 0.20 | 81 | 1005.1 |
| 20260903022017 | 59 | 184 | 5.0 | 10.0 | 0.00 | 0.20 | 0.20 | 80 | 1005.1 |
| 20260903021517 | 59 | 193 | 4.0 | 9.0 | 0.00 | 0.20 | 0.20 | 80 | 1005.0 |
| 20260903021017 | 59 | 175 | 4.0 | 8.0 | 0.00 | 0.20 | 0.20 | 80 | 1005.0 |
| 20260903020537 | 59 | 193 | 3.0 | 8.0 | 0.00 | 0.20 | 0.20 | 80 | 1005.0 |
| 20260903020020 | 60 | 187 | 4.0 | 7.0 | 0.00 | 0.20 | 0.20 | 80 | 1004.9 |
| 20260903015537 | 60 | 185 | 3.0 | 6.0 | 0.00 | 0.20 | 0.20 | 79 | 1004.8 |
| 20260903015020 | 60 | 189 | 4.0 | 9.0 | 0.00 | 0.20 | 0.20 | 79 | 1004.6 |
| 20260903014557 | 60 | 189 | 3.0 | 9.0 | 0.00 | 0.20 | 0.20 | 80 | 1004.6 |
| 20260903014018 | 60 | 192 | 4.0 | 8.0 | 0.00 | 0.20 | 0.20 | 79 | 1004.6 |
| 20260903013517 | 60 | 197 | 5.0 | 8.0 | 0.00 | 0.20 | 0.20 | 80 | 1004.5 |
| 20260903013017 | 60 | 192 | 5.0 | 9.0 | 0.00 | 0.20 | 0.20 | 81 | 1004.6 |
| 20260903012520 | 60 | 205 | 4.0 | 10.0 | 0.00 | 0.20 | 0.20 | 82 | 1004.6 |
| 20260903012017 | 60 | 219 | 4.0 | 9.0 | 0.00 | 0.20 | 0.20 | 83 | 1004.6 |
| 20260903011518 | 60 | 207 | 5.0 | 12.0 | 0.00 | 0.20 | 0.20 | 84 | 1004.6 |
| 20260903011018 | 60 | 180 | 5.0 | 13.0 | 0.00 | 0.20 | 0.20 | 85 | 1004.4 |
| 20260903010518 | 60 | 193 | 5.0 | 8.0 | 0.00 | 0.20 | 0.20 | 85 | 1004.2 |
| 20260903010018 | 60 | 206 | 4.0 | 8.0 | 0.00 | 0.20 | 0.20 | 85 | 1004.2 |
| 20260903005518 | 60 | 193 | 4.0 | 9.0 | 0.00 | 0.20 | 0.20 | 86 | 1004.1 |
| 20260903005021 | 60 | 193 | 4.0 | 9.0 | 0.00 | 0.20 | 0.20 | 86 | 1004.0 |
| 20260903004518 | 60 | 191 | 4.0 | 10.0 | 0.00 | 0.20 | 0.20 | 85 | 1004.0 |
| 20260903004018 | 60 | 199 | 5.0 | 10.0 | 0.00 | 0.20 | 0.20 | 85 | 1004.0 |
| 20260903003521 | 60 | 201 | 4.0 | 9.0 | 0.00 | 0.20 | 0.20 | 85 | 1004.0 |
| 20260903003018 | 60 | 204 | 3.0 | 9.0 | 0.00 | 0.20 | 0.20 | 85 | 1004.0 |
| 20260903002521 | 61 | 184 | 6.0 | 11.0 | 0.00 | 0.20 | 0.20 | 83 | 1004.0 |
| 20260903002019 | 61 | 186 | 3.0 | 9.0 | 0.01 | 0.20 | 0.20 | 88 | 1004.0 |
| 20260903001518 | 61 | 159 | 3.0 | 6.0 | 0.01 | 0.20 | 0.20 | 88 | 1003.8 |
| 20260903001018 | 61 | 139 | 3.0 | 6.0 | 0.02 | 0.20 | 0.20 | 88 | 1003.7 |
| 20260903000536 | 60 | 159 | 3.0 | 7.0 | 0.04 | 0.20 | 0.20 | 89 | 1003.8 |
| 20260903000038 | 60 | 150 | 4.0 | 6.0 | 0.05 | 0.20 | 0.20 | 87 | 1003.8 |
| 20260902235536 | 60 | 147 | 4.0 | 7.0 | 0.05 | 0.20 | 0.20 | 88 | 1003.9 |
| 20260902235016 | 60 | 145 | 4.0 | 7.0 | 0.06 | 0.20 | 0.20 | 88 | 1003.8 |
| 20260902234516 | 60 | 146 | 2.0 | 7.0 | 0.07 | 0.20 | 0.20 | 89 | 1003.8 |
| 20260902234036 | 60 | 143 | 4.0 | 9.0 | 0.09 | 0.20 | 0.20 | 90 | 1003.8 |
| 20260902233536 | 60 | 130 | 2.0 | 5.0 | 0.09 | 0.20 | 0.20 | 91 | 1003.9 |
| 20260902233036 | 59 | 144 | 3.0 | 6.0 | 0.10 | 0.20 | 0.20 | 90 | 1004.0 |
| 20260902232516 | 59 | 149 | 4.0 | 7.0 | 0.10 | 0.19 | 0.19 | 91 | 1004.2 |
| 20260902232037 | 59 | 160 | 2.0 | 5.0 | 0.10 | 0.19 | 0.19 | 91 | 1004.3 |
| 20260902231519 | 59 | 183 | 3.0 | 6.0 | 0.09 | 0.18 | 0.18 | 90 | 1004.3 |
| 20260902231019 | 59 | 186 | 3.0 | 5.0 | 0.09 | 0.17 | 0.17 | 90 | 1004.2 |
| 20260902230516 | 59 | 175 | 2.0 | 6.0 | 0.08 | 0.16 | 0.16 | 89 | 1004.2 |
| 20260902230019 | 59 | 213 | 1.0 | 4.0 | 0.07 | 0.15 | 0.15 | 89 | 1004.2 |
| 20260902225517 | 59 | 182 | 3.0 | 6.0 | 0.07 | 0.14 | 0.14 | 88 | 1004.1 |
| 20260902225037 | 59 | 184 | 3.0 | 6.0 | 0.07 | 0.13 | 0.13 | 88 | 1004.1 |
| 20260902224517 | 59 | 192 | 3.0 | 6.0 | 0.06 | 0.12 | 0.12 | 87 | 1004.0 |
| 20260902224023 | 59 | 202 | 2.0 | 5.0 | 0.06 | 0.11 | 0.11 | 87 | 1004.0 |
| 20260902223517 | 59 | 217 | 2.0 | 5.0 | 0.06 | 0.10 | 0.10 | 86 | 1004.0 |
| 20260902223057 | 60 | 237 | 2.0 | 5.0 | 0.05 | 0.10 | 0.10 | 86 | 1004.0 |
| 20260902222517 | 60 | 203 | 2.0 | 5.0 | 0.05 | 0.10 | 0.10 | 86 | 1004.0 |
| 20260902222018 | 60 | 183 | 2.0 | 6.0 | 0.05 | 0.09 | 0.09 | 85 | 1004.1 |
| 20260902221518 | 60 | 189 | 3.0 | 7.0 | 0.05 | 0.09 | 0.09 | 84 | 1004.1 |
| 20260902221040 | 60 | 183 | 2.0 | 4.0 | 0.05 | 0.08 | 0.08 | 84 | 1004.1 |
| 20260902220523 | 61 | 197 | 2.0 | 5.0 | 0.05 | 0.08 | 0.08 | 83 | 1004.0 |
| 20260902220020 | 61 | 224 | 2.0 | 5.0 | 0.05 | 0.08 | 0.08 | 83 | 1004.0 |
| 20260902215017 | 61 | 228 | 2.0 | 4.0 | 0.04 | 0.07 | 0.07 | 81 | 1004.1 |
| 20260902214518 | 62 | 208 | 2.0 | 5.0 | 0.04 | 0.06 | 0.06 | 80 | 1004.2 |
| 20260902214023 | 62 | 214 | 1.0 | 6.0 | 0.03 | 0.05 | 0.05 | 79 | 1004.2 |
| 20260902213538 | 62 | 240 | 2.0 | 5.0 | 0.02 | 0.05 | 0.05 | 78 | 1004.3 |
| 20260902213018 | 62 | 223 | 2.0 | 7.0 | 0.02 | 0.05 | 0.05 | 77 | 1004.2 |
| 20260902212544 | 63 | 225 | 2.0 | 6.0 | 0.02 | 0.04 | 0.04 | 76 | 1004.2 |
| 20260902212018 | 63 | 238 | 3.0 | 7.0 | 0.02 | 0.04 | 0.04 | 74 | 1004.2 |
| 20260902211518 | 64 | 218 | 2.0 | 6.0 | 0.01 | 0.03 | 0.03 | 73 | 1004.2 |
| 20260902211018 | 64 | 227 | 2.0 | 5.0 | 0.01 | 0.03 | 0.03 | 71 | 1004.2 |
| 20260902210524 | 65 | 186 | 5.0 | 9.0 | 0.00 | 0.03 | 0.03 | 69 | 1004.1 |
| 20260902210019 | 65 | 210 | 3.0 | 10.0 | 0.01 | 0.02 | 0.02 | 67 | 1004.1 |
| 20260902205527 | 65 | 197 | 4.0 | 8.0 | 0.01 | 0.02 | 0.02 | 67 | 1004.1 |
| 20260902205018 | 66 | 192 | 6.0 | 9.0 | 0.02 | 0.02 | 0.02 | 66 | 1004.0 |
| 20260902204518 | 66 | 209 | 4.0 | 8.0 | 0.02 | 0.02 | 0.02 | 68 | 1004.1 |
| 20260902204015 | 65 | 229 | 3.0 | 9.0 | 0.02 | 0.02 | 0.02 | 71 | 1004.1 |
| 20260902203516 | 65 | 160 | 3.0 | 7.0 | 0.02 | 0.02 | 0.02 | 73 | 1004.1 |
| 20260902203036 | 65 | 166 | 3.0 | 8.0 | 0.02 | 0.02 | 0.02 | 73 | 1004.1 |
| 20260902202539 | 64 | 160 | 3.0 | 6.0 | 0.02 | 0.02 | 0.02 | 75 | 1004.2 |
| 20260902202016 | 63 | 171 | 2.0 | 5.0 | 0.02 | 0.02 | 0.02 | 76 | 1004.2 |
| 20260902201516 | 63 | 157 | 2.0 | 5.0 | 0.02 | 0.02 | 0.02 | 75 | 1004.2 |
| 20260902201016 | 63 | 189 | 3.0 | 6.0 | 0.02 | 0.02 | 0.02 | 76 | 1004.2 |
| 20260902200522 | 63 | 215 | 3.0 | 8.0 | 0.02 | 0.02 | 0.02 | 76 | 1004.3 |
| 20260902200016 | 64 | 212 | 4.0 | 9.0 | 0.02 | 0.02 | 0.02 | 73 | 1004.4 |
| 20260902195517 | 66 | 230 | 5.0 | 10.0 | 0.01 | 0.01 | 0.01 | 64 | 1004.4 |
| 20260902195017 | 66 | 229 | 5.0 | 9.0 | 0.00 | 0.00 | 0.00 | 62 | 1004.3 |
| 20260902194517 | 66 | 238 | 5.0 | 14.0 | 0.00 | 0.00 | 0.00 | 62 | 1004.4 |
| 20260902194016 | 67 | 223 | 4.0 | 12.0 | 0.00 | 0.00 | 0.00 | 62 | 1004.4 |
| 20260902193517 | 68 | 231 | 6.0 | 17.0 | 0.00 | 0.00 | 0.00 | 60 | 1004.4 |
| 20260902193017 | 69 | 159 | 6.0 | 11.0 | 0.00 | 0.00 | 0.00 | 57 | 1004.3 |
| 20260902192517 | 69 | 172 | 6.0 | 9.0 | 0.00 | 0.00 | 0.00 | 56 | 1004.2 |
| 20260902192017 | 69 | 155 | 5.0 | 9.0 | 0.00 | 0.00 | 0.00 | 56 | 1004.2 |
| 20260902191537 | 69 | 154 | 6.0 | 10.0 | 0.00 | 0.00 | 0.00 | 57 | 1004.3 |
| 20260902191017 | 69 | 157 | 5.0 | 8.0 | 0.00 | 0.00 | 0.00 | 56 | 1004.3 |
| 20260902190517 | 68 | 161 | 5.0 | 9.0 | 0.00 | 0.00 | 0.00 | 58 | 1004.3 |
| 20260902190017 | 68 | 153 | 4.0 | 10.0 | 0.00 | 0.00 | 0.00 | 59 | 1004.4 |
| 20260902185517 | 68 | 156 | 4.0 | 7.0 | 0.00 | 0.00 | 0.00 | 59 | 1004.4 |
| 20260902185017 | 68 | 157 | 4.0 | 7.0 | 0.00 | 0.00 | 0.00 | 60 | 1004.5 |
| 20260902184517 | 67 | 163 | 4.0 | 6.0 | 0.00 | 0.00 | 0.00 | 60 | 1004.5 |
| 20260902184017 | 67 | 146 | 5.0 | 8.0 | 0.00 | 0.00 | 0.00 | 61 | 1004.6 |
| 20260902183520 | 66 | 154 | 3.0 | 7.0 | 0.00 | 0.00 | 0.00 | 62 | 1004.7 |
| 20260902183018 | 66 | 148 | 3.0 | 5.0 | 0.00 | 0.00 | 0.00 | 62 | 1004.7 |
| 20260902182518 | 66 | 154 | 4.0 | 6.0 | 0.00 | 0.00 | 0.00 | 62 | 1004.7 |
| 20260902182018 | 66 | 149 | 4.0 | 7.0 | 0.00 | 0.00 | 0.00 | 62 | 1004.7 |
| 20260902181518 | 66 | 157 | 3.0 | 6.0 | 0.00 | 0.00 | 0.00 | 62 | 1004.8 |
| 20260902181018 | 66 | 147 | 4.0 | 7.0 | 0.00 | 0.00 | 0.00 | 63 | 1004.9 |
| 20260902180518 | 66 | 148 | 3.0 | 6.0 | 0.00 | 0.00 | 0.00 | 64 | 1005.0 |
| 20260902180018 | 66 | 164 | 3.0 | 7.0 | 0.00 | 0.00 | 0.00 | 64 | 1005.1 |
| 20260902175518 | 66 | 153 | 5.0 | 7.0 | 0.00 | 0.00 | 0.00 | 63 | 1005.1 |
| 20260902175018 | 66 | 153 | 5.0 | 9.0 | 0.00 | 0.00 | 0.00 | 64 | 1005.1 |
| 20260902174524 | 66 | 145 | 4.0 | 9.0 | 0.00 | 0.00 | 0.00 | 64 | 1005.2 |
| 20260902174018 | 66 | 164 | 4.0 | 7.0 | 0.00 | 0.00 | 0.00 | 65 | 1005.2 |
| 20260902173519 | 66 | 148 | 5.0 | 8.0 | 0.00 | 0.00 | 0.00 | 64 | 1005.2 |
| 20260902173018 | 66 | 157 | 3.0 | 6.0 | 0.00 | 0.00 | 0.00 | 66 | 1005.3 |
| 20260902172522 | 65 | 153 | 3.0 | 6.0 | 0.00 | 0.00 | 0.00 | 66 | 1005.3 |
| 20260902172016 | 65 | 143 | 3.0 | 6.0 | 0.00 | 0.00 | 0.00 | 67 | 1005.3 |
| 20260902171536 | 65 | 141 | 3.0 | 6.0 | 0.00 | 0.00 | 0.00 | 68 | 1005.4 |
| 20260902171016 | 65 | 155 | 3.0 | 6.0 | 0.00 | 0.00 | 0.00 | 68 | 1005.4 |
| 20260902170516 | 65 | 153 | 3.0 | 7.0 | 0.00 | 0.00 | 0.00 | 68 | 1005.4 |
| 20260902170136 | 65 | 156 | 3.0 | 6.0 | 0.00 | 0.00 | 0.00 | 68 | 1005.5 |
| 20260902165536 | 65 | 143 | 4.0 | 7.0 | 0.00 | 0.00 | 0.00 | 67 | 1005.5 |
| 20260902165042 | 65 | 139 | 3.0 | 6.0 | 0.00 | 0.00 | 0.00 | 68 | 1005.6 |
| 20260902164516 | 65 | 160 | 3.0 | 5.0 | 0.00 | 0.00 | 0.00 | 67 | 1005.6 |
| 20260902164017 | 65 | 151 | 3.0 | 5.0 | 0.00 | 0.00 | 0.00 | 67 | 1005.7 |
| 20260902163537 | 65 | 186 | 2.0 | 4.0 | 0.00 | 0.00 | 0.00 | 69 | 1005.8 |
| 20260902163016 | 65 | 153 | 2.0 | 4.0 | 0.00 | 0.00 | 0.00 | 70 | 1005.8 |
| 20260902162517 | 65 | 152 | 2.0 | 3.0 | 0.00 | 0.00 | 0.00 | 70 | 1005.8 |
| 20260902162017 | 64 | 148 | 3.0 | 5.0 | 0.00 | 0.00 | 0.00 | 70 | 1005.9 |
| 20260902161542 | 64 | 139 | 4.0 | 7.0 | 0.00 | 0.00 | 0.00 | 70 | 1005.9 |
| 20260902161040 | 64 | 152 | 3.0 | 5.0 | 0.00 | 0.00 | 0.00 | 71 | 1005.9 |
| 20260902160517 | 64 | 127 | 2.0 | 5.0 | 0.00 | 0.00 | 0.00 | 70 | 1006.0 |
| 20260902160017 | 64 | 148 | 2.0 | 4.0 | 0.00 | 0.00 | 0.00 | 71 | 1006.1 |
| 20260902155520 | 64 | 146 | 3.0 | 5.0 | 0.00 | 0.00 | 0.00 | 71 | 1006.1 |
| 20260902155017 | 63 | 132 | 3.0 | 7.0 | 0.00 | 0.00 | 0.00 | 72 | 1006.1 |
| 20260902154517 | 63 | 141 | 4.0 | 7.0 | 0.00 | 0.00 | 0.00 | 72 | 1006.2 |
| 20260902154017 | 63 | 146 | 3.0 | 7.0 | 0.00 | 0.00 | 0.00 | 73 | 1006.2 |
| 20260902153517 | 63 | 133 | 3.0 | 8.0 | 0.00 | 0.00 | 0.00 | 73 | 1006.3 |
| 20260902153017 | 63 | 130 | 3.0 | 6.0 | 0.00 | 0.00 | 0.00 | 74 | 1006.4 |
| 20260902152520 | 63 | 136 | 3.0 | 8.0 | 0.00 | 0.00 | 0.00 | 74 | 1006.4 |
| 20260902152017 | 63 | 140 | 5.0 | 7.0 | 0.00 | 0.00 | 0.00 | 74 | 1006.4 |
| 20260902151600 | 63 | 145 | 4.0 | 9.0 | 0.00 | 0.00 | 0.00 | 74 | 1006.5 |
| 20260902151058 | 63 | 143 | 4.0 | 7.0 | 0.00 | 0.00 | 0.00 | 73 | 1006.5 |
| 20260902150518 | 63 | 156 | 3.0 | 7.0 | 0.00 | 0.00 | 0.00 | 75 | 1006.6 |
| 20260902150018 | 62 | 195 | 1.0 | 3.0 | 0.00 | 0.00 | 0.00 | 76 | 1006.6 |
| 20260902145518 | 62 | 140 | 3.0 | 7.0 | 0.00 | 0.00 | 0.00 | 76 | 1006.7 |
| 20260902145018 | 62 | 176 | 2.0 | 6.0 | 0.00 | 0.00 | 0.00 | 78 | 1006.8 |
| 20260902144538 | 62 | 161 | 2.0 | 6.0 | 0.00 | 0.00 | 0.00 | 78 | 1006.9 |
| 20260902144018 | 62 | 185 | 2.0 | 8.0 | 0.00 | 0.00 | 0.00 | 80 | 1007.0 |
| 20260902143518 | 61 | 197 | 2.0 | 4.0 | 0.00 | 0.00 | 0.00 | 80 | 1007.0 |
| 20260902143018 | 61 | 173 | 2.0 | 4.0 | 0.00 | 0.00 | 0.00 | 80 | 1007.0 |
| 20260902142518 | 61 | 201 | 2.0 | 5.0 | 0.00 | 0.00 | 0.00 | 81 | 1007.0 |
| 20260902142018 | 60 | 188 | 1.0 | 4.0 | 0.00 | 0.00 | 0.00 | 82 | 1007.0 |
| 20260902141521 | 60 | 245 | 1.0 | 4.0 | 0.00 | 0.00 | 0.00 | 82 | 1007.0 |
| 20260902141018 | 60 | 244 | 1.0 | 2.0 | 0.00 | 0.00 | 0.00 | 82 | 1007.0 |
| 20260902140536 | 60 | 246 | 1.0 | 4.0 | 0.00 | 0.00 | 0.00 | 82 | 1007.0 |
| 20260902140016 | 60 | 221 | 1.0 | 3.0 | 0.00 | 0.00 | 0.00 | 81 | 1006.9 |
| 20260902135556 | 60 | 202 | 2.0 | 4.0 | 0.00 | 0.00 | 0.00 | 82 | 1006.9 |
| 20260902135016 | 60 | 218 | 1.0 | 4.0 | 0.00 | 0.00 | 0.00 | 82 | 1006.9 |
| 20260902134518 | 60 | 244 | 1.0 | 3.0 | 0.00 | 0.00 | 0.00 | 82 | 1006.9 |
| 20260902134018 | 60 | 221 | 1.0 | 3.0 | 0.00 | 0.00 | 0.00 | 81 | 1006.9 |
| 20260902133516 | 60 | 234 | 1.0 | 3.0 | 0.00 | 0.00 | 0.00 | 82 | 1006.9 |
| 20260902133016 | 60 | 232 | 1.0 | 2.0 | 0.00 | 0.00 | 0.00 | 82 | 1006.9 |
| 20260902132536 | 60 | 223 | 1.0 | 2.0 | 0.00 | 0.00 | 0.00 | 81 | 1006.9 |
| 20260902132017 | 61 | 210 | 1.0 | 4.0 | 0.00 | 0.00 | 0.00 | 81 | 1007.0 |
| 20260902131516 | 61 | 193 | 1.0 | 5.0 | 0.00 | 0.00 | 0.00 | 81 | 1007.0 |
| 20260902131017 | 61 | 208 | 2.0 | 4.0 | 0.00 | 0.00 | 0.00 | 80 | 1007.1 |
| 20260902130517 | 61 | 206 | 2.0 | 5.0 | 0.00 | 0.00 | 0.00 | 81 | 1007.1 |
| 20260902130017 | 61 | 183 | 3.0 | 6.0 | 0.00 | 0.00 | 0.00 | 81 | 1007.2 |
| 20260902125517 | 61 | 195 | 2.0 | 5.0 | 0.00 | 0.00 | 0.00 | 81 | 1007.2 |
| 20260902125017 | 61 | 178 | 2.0 | 5.0 | 0.00 | 0.00 | 0.00 | 81 | 1007.3 |
| 20260902124516 | 61 | 194 | 2.0 | 5.0 | 0.00 | 0.00 | 0.00 | 81 | 1007.4 |
| 20260902124016 | 61 | 188 | 2.0 | 5.0 | 0.00 | 0.00 | 0.00 | 81 | 1007.4 |
| 20260902123517 | 61 | 188 | 2.0 | 5.0 | 0.00 | 0.00 | 0.00 | 81 | 1007.4 |
| 20260902123017 | 61 | 178 | 2.0 | 3.0 | 0.00 | 0.00 | 0.00 | 80 | 1007.5 |
| 20260902122537 | 61 | 184 | 3.0 | 6.0 | 0.00 | 0.00 | 0.00 | 81 | 1007.4 |
| 20260902122017 | 61 | 198 | 2.0 | 5.0 | 0.00 | 0.00 | 0.00 | 81 | 1007.4 |
| 20260902121518 | 61 | 193 | 3.0 | 6.0 | 0.00 | 0.00 | 0.00 | 82 | 1007.5 |
| 20260902121017 | 61 | 186 | 1.0 | 5.0 | 0.00 | 0.00 | 0.00 | 82 | 1007.5 |
| 20260902120518 | 61 | 184 | 2.0 | 4.0 | 0.00 | 0.00 | 0.00 | 82 | 1007.5 |
| 20260902120017 | 61 | 191 | 2.0 | 4.0 | 0.00 | 0.00 | 0.00 | 82 | 1007.5 |
| 20260902115537 | 61 | 183 | 1.0 | 4.0 | 0.00 | 0.00 | 0.00 | 82 | 1007.5 |
| 20260902115018 | 61 | 206 | 1.0 | 3.0 | 0.00 | 0.00 | 0.00 | 82 | 1007.6 |
| 20260902114517 | 61 | 219 | 2.0 | 4.0 | 0.00 | 0.00 | 0.00 | 82 | 1007.6 |
| 20260902114038 | 61 | 203 | 1.0 | 3.0 | 0.00 | 0.00 | 0.00 | 82 | 1007.6 |
| 20260902113521 | 61 | 201 | 2.0 | 4.0 | 0.00 | 0.00 | 0.00 | 82 | 1007.6 |